Tracking 20093 objects as of 14-Dec-2019
HD Live streaming from Space Station
objects crossing your sky now

H-2A DEB


H-2A DEB is no longer on orbit


NORAD ID: 39772
Int'l Code: 2014-029G
Perigee: N/A
Apogee: N/A
Inclination: N/A
Period: N/A
Semi major axis: N/A
RCS: N/A
Launch date: May 24, 2014
Source: Japan (JPN)
Launch site: TANEGASHIMA SPACE CENTER (TNSTA)
Decay date: 2014-07-09

Note: This is SATELLITE DEBRIS
aabbcc
Your satellite tracking list
Your tracking list is empty




NASA's NSSDC Master Catalog

Two Line Element Set (TLE):
1 39772U 14029G   14190.24693742  .18502308  00000-0  14716+0 0  9991
2 39772 098.0612 289.8319 0036571 284.5249 077.0364 15.64174585  6922
Source of the keplerian elements: AFSPC